BADR-4 1 29526U 06051A 21060.96906692 .00000137 00000-0 00000+0 0 9992 2 29526 0.0607 320.1954 0005696 20.8551 193.7671 1.00279832 52508 BREEZE-M R/B 1 29527U 06051B 21060.28564362 -.00000065 00000-0 00000-0 0 9994 2 29527 14.6936 20.5805 6340506 257.9777 29.1893 2.09458899109448 BREEZE-M DEB [TANK] 1 29528U 06051C 21059.54213086 -.00000086 00000-0 -49843-3 0 9991 2 29528 51.3764 332.4960 6032460 237.6514 344.1907 3.64252228190394